TimeEST,TemperatureF,Dew PointF,Humidity,Sea Level PressureIn,VisibilityMPH,Wind Direction,Wind SpeedMPH,Gust SpeedMPH,PrecipitationIn,Events,Conditions,WindDirDegrees,DateUTC
12:53 AM,59.0,55.0,87,30.26,10.0,NNW,3.5,-,N/A,,Clear,330,2013-01-24 05:53:00
1:53 AM,57.9,55.0,90,30.26,10.0,NNW,5.8,-,N/A,,Clear,330,2013-01-24 06:53:00
2:53 AM,59.0,55.0,87,30.24,10.0,North,8.1,-,N/A,,Clear,350,2013-01-24 07:53:00
3:53 AM,59.0,55.0,87,30.24,10.0,NNW,6.9,-,N/A,,Clear,340,2013-01-24 08:53:00
4:53 AM,57.0,54.0,89,30.23,10.0,NW,5.8,-,N/A,,Clear,320,2013-01-24 09:53:00
5:53 AM,57.9,55.0,90,30.25,10.0,NNW,8.1,-,N/A,,Clear,340,2013-01-24 10:53:00
6:53 AM,59.0,54.0,83,30.25,10.0,NNW,8.1,-,N/A,,Clear,340,2013-01-24 11:53:00
7:53 AM,60.1,51.1,72,30.28,10.0,NNW,10.4,-,N/A,,Clear,340,2013-01-24 12:53:00
8:53 AM,66.0,48.0,52,30.30,10.0,NNW,8.1,-,N/A,,Clear,340,2013-01-24 13:53:00
9:53 AM,70.0,46.9,44,30.30,10.0,NNW,10.4,-,N/A,,Clear,340,2013-01-24 14:53:00
10:53 AM,72.0,50.0,46,30.29,10.0,NNW,6.9,-,N/A,,Clear,340,2013-01-24 15:53:00
11:53 AM,73.9,52.0,46,30.28,10.0,North,8.1,-,N/A,,Partly Cloudy,10,2013-01-24 16:53:00
12:53 PM,73.9,54.0,50,30.26,10.0,NE,9.2,-,N/A,,Scattered Clouds,50,2013-01-24 17:53:00
1:53 PM,75.0,53.1,46,30.24,10.0,NE,13.8,-,N/A,,Partly Cloudy,40,2013-01-24 18:53:00
2:53 PM,73.0,53.1,49,30.22,10.0,NE,12.7,-,N/A,,Clear,50,2013-01-24 19:53:00
3:53 PM,73.0,54.0,51,30.22,10.0,ENE,10.4,-,N/A,,Clear,60,2013-01-24 20:53:00
4:53 PM,72.0,53.1,51,30.23,10.0,NE,10.4,-,N/A,,Clear,40,2013-01-24 21:53:00
5:53 PM,70.0,52.0,53,30.25,10.0,NNE,9.2,-,N/A,,Clear,20,2013-01-24 22:53:00
6:53 PM,66.9,48.0,51,30.25,10.0,North,6.9,-,N/A,,Clear,360,2013-01-24 23:53:00
7:53 PM,64.9,50.0,58,30.26,10.0,NNW,3.5,-,N/A,,Clear,340,2013-01-25 00:53:00
8:53 PM,63.0,52.0,67,30.27,10.0,North,6.9,-,N/A,,Scattered Clouds,360,2013-01-25 01:53:00
9:53 PM,63.0,52.0,67,30.28,10.0,North,5.8,-,N/A,,Clear,350,2013-01-25 02:53:00
10:53 PM,63.0,52.0,67,30.28,10.0,North,5.8,-,N/A,,Clear,360,2013-01-25 03:53:00
11:53 PM,60.1,53.1,78,30.27,10.0,NNW,5.8,-,N/A,,Partly Cloudy,340,2013-01-25 04:53:00